• In Spain
  • List of Countries
  • For 7 days
  • Water Temperature
  • Satellite Maps
  • Weather Map
  • Weather Widgets
  • user-avatar
    Login

    Hourly Weather Novosadovaya

    Today, 25 September, Tuesday

    Time Temperature Precipitation Wind Pressure Humidity
    00:00 +4°C° 1.6 mm 6 mps 725 mmHg 94%
    01:00 +4°C° 1.6 mm 6 mps 725 mmHg 93%
    02:00 +5°C° 1.6 mm 7 mps 726 mmHg 92%
    03:00 +5°C° 0.8 mm 7 mps 726 mmHg 91%
    04:00 +5°C° 0.8 mm 7 mps 727 mmHg 90%
    05:00 +4°C° 0.8 mm 7 mps 728 mmHg 90%
    06:00 +4°C° 0.2 mm 7 mps 728 mmHg 89%
    07:00 +4°C° 0.2 mm 7 mps 729 mmHg 88%
    08:00 +4°C° 0.2 mm 7 mps 730 mmHg 87%
    09:00 +5°C° 0.1 mm 7 mps 731 mmHg 85%
    10:00 +5°C° 0.1 mm 7 mps 732 mmHg 83%
    11:00 +5°C° 0.1 mm 7 mps 733 mmHg 81%
    12:00 +5°C° 0.1 mm 7 mps 734 mmHg 79%
    13:00 +7°C° 0.1 mm 6 mps 734 mmHg 76%
    14:00 +7°C° 0.1 mm 6 mps 735 mmHg 74%
    15:00 +7°C° 0 mm 6 mps 736 mmHg 73%
    16:00 +6°C° 0 mm 5 mps 737 mmHg 72%
    17:00 +6°C° 0 mm 5 mps 737 mmHg 71%
    18:00 +5°C° 0 mm 4 mps 738 mmHg 74%
    19:00 +5°C° 0 mm 4 mps 739 mmHg 77%
    20:00 +4°C° 0 mm 4 mps 739 mmHg 80%
    21:00 +4°C° 0 mm 4 mps 740 mmHg 79%
    22:00 +4°C° 0 mm 4 mps 741 mmHg 79%
    23:00 +3°C° 0 mm 4 mps 742 mmHg 78%

    Tomorrow, 26 September, Wednesday

    Time Temperature Precipitation Wind Pressure Humidity
    00:00 +3°C° 0 mm 4 mps 742 mmHg 77%
    01:00 +1°C° 0 mm 4 mps 743 mmHg 77%
    02:00 +1°C° 0 mm 4 mps 744 mmHg 76%
    03:00 0°C° 0 mm 4 mps 744 mmHg 77%
    04:00 +1°C° 0 mm 3 mps 745 mmHg 78%
    05:00 0°C° 0 mm 3 mps 745 mmHg 79%
    06:00 +1°C° 0 mm 3 mps 745 mmHg 76%
    07:00 +2°C° 0 mm 3 mps 746 mmHg 74%
    08:00 +3°C° 0 mm 3 mps 746 mmHg 72%
    09:00 +5°C° 0 mm 3 mps 746 mmHg 69%
    10:00 +7°C° 0 mm 4 mps 746 mmHg 66%
    11:00 +8°C° 0 mm 4 mps 746 mmHg 63%
    12:00 +10°C° 0 mm 4 mps 746 mmHg 60%
    13:00 +10°C° 0 mm 4 mps 745 mmHg 57%
    14:00 +11°C° 0 mm 4 mps 745 mmHg 54%
    15:00 +10°C° 0 mm 4 mps 744 mmHg 57%
    16:00 +8°C° 0 mm 4 mps 743 mmHg 60%
    17:00 +7°C° 0 mm 4 mps 743 mmHg 63%
    18:00 +7°C° 0.1 mm 5 mps 742 mmHg 67%
    19:00 +7°C° 0.1 mm 5 mps 741 mmHg 70%
    20:00 +5°C° 0.1 mm 6 mps 740 mmHg 73%
    21:00 +5°C° 1 mm 7 mps 739 mmHg 78%
    22:00 +4°C° 1 mm 7 mps 738 mmHg 83%
    23:00 +4°C° 1 mm 8 mps 736 mmHg 88%

    Day after tomorrow, 27 September, Thursday

    Time Temperature Precipitation Wind Pressure Humidity
    00:00 +4°C° 1.1 mm 8 mps 735 mmHg 89%
    01:00 +5°C° 1.1 mm 8 mps 734 mmHg 89%
    02:00 +5°C° 1.1 mm 8 mps 733 mmHg 90%
    03:00 +5°C° 1 mm 7 mps 732 mmHg 90%
    04:00 +6°C° 1 mm 7 mps 732 mmHg 91%
    05:00 +7°C° 1 mm 6 mps 731 mmHg 91%
    06:00 +7°C° 0.2 mm 6 mps 731 mmHg 88%
    07:00 +7°C° 0.2 mm 5 mps 732 mmHg 85%
    08:00 +7°C° 0.2 mm 5 mps 732 mmHg 83%
    09:00 +8°C° 0.1 mm 6 mps 732 mmHg 77%
    10:00 +8°C° 0.1 mm 6 mps 732 mmHg 70%
    11:00 +9°C° 0.1 mm 7 mps 733 mmHg 64%
    12:00 +9°C° 0 mm 7 mps 733 mmHg 62%
    13:00 +10°C° 0 mm 7 mps 733 mmHg 59%
    14:00 +10°C° 0 mm 7 mps 734 mmHg 56%
    15:00 +9°C° 0 mm 6 mps 734 mmHg 60%
    16:00 +8°C° 0 mm 5 mps 734 mmHg 64%
    17:00 +7°C° 0 mm 4 mps 735 mmHg 68%
    18:00 +7°C° 0 mm 4 mps 735 mmHg 70%
    19:00 +6°C° 0 mm 4 mps 735 mmHg 72%
    20:00 +5°C° 0 mm 4 mps 736 mmHg 74%
    21:00 +5°C° 0 mm 4 mps 736 mmHg 75%
    22:00 +5°C° 0 mm 4 mps 736 mmHg 76%
    23:00 +4°C° 0 mm 4 mps 736 mmHg 77%

    28 September, Friday

    Time Temperature Precipitation Wind Pressure Humidity
    00:00 +4°C° 0 mm 3 mps 736 mmHg 80%
    01:00 +3°C° 0 mm 3 mps 736 mmHg 82%
    02:00 +3°C° 0 mm 3 mps 736 mmHg 85%
    03:00 +3°C° 0.3 mm 3 mps 735 mmHg 86%
    04:00 +4°C° 0.3 mm 3 mps 734 mmHg 86%
    05:00 +4°C° 0.3 mm 3 mps 733 mmHg 87%
    06:00 +5°C° 2.5 mm 4 mps 731 mmHg 89%
    07:00 +6°C° 2.5 mm 5 mps 730 mmHg 91%
    08:00 +8°C° 2.5 mm 7 mps 728 mmHg 92%
    09:00 +8°C° 1.9 mm 6 mps 728 mmHg 92%
    10:00 +8°C° 1.9 mm 6 mps 728 mmHg 91%
    11:00 +8°C° 1.9 mm 5 mps 728 mmHg 91%
    12:00 +7°C° 0.3 mm 5 mps 729 mmHg 90%
    13:00 +6°C° 0.3 mm 5 mps 730 mmHg 88%
    14:00 +5°C° 0.3 mm 5 mps 731 mmHg 87%
    15:00 +5°C° 0 mm 4 mps 733 mmHg 86%
    16:00 +5°C° 0 mm 4 mps 734 mmHg 85%
    17:00 +4°C° 0 mm 3 mps 736 mmHg 85%
    18:00 +3°C° 0 mm 3 mps 737 mmHg 86%
    19:00 +3°C° 0 mm 3 mps 737 mmHg 88%
    20:00 +3°C° 0 mm 2 mps 738 mmHg 90%
    21:00 +2°C° 0 mm 2 mps 739 mmHg 91%
    22:00 +2°C° 0 mm 2 mps 739 mmHg 91%
    23:00 +1°C° 0 mm 2 mps 739 mmHg 91%

    29 September, Saturday

    Time Temperature Precipitation Wind Pressure Humidity
    00:00 +1°C° 0 mm 2 mps 740 mmHg 91%
    01:00 +1°C° 0 mm 2 mps 740 mmHg 91%
    02:00 +1°C° 0 mm 2 mps 740 mmHg 90%
    03:00 +1°C° 0 mm 2 mps 740 mmHg 91%
    04:00 +1°C° 0 mm 3 mps 740 mmHg 91%
    05:00 +1°C° 0 mm 3 mps 740 mmHg 92%
    06:00 +2°C° 0.1 mm 3 mps 741 mmHg 91%
    07:00 +3°C° 0.1 mm 3 mps 741 mmHg 91%
    08:00 +4°C° 0.1 mm 3 mps 742 mmHg 91%
    09:00 +4°C° 0.1 mm 3 mps 742 mmHg 87%
    10:00 +5°C° 0.1 mm 3 mps 742 mmHg 84%
    11:00 +5°C° 0.1 mm 3 mps 743 mmHg 80%
    12:00 +7°C° 0.1 mm 3 mps 743 mmHg 74%
    13:00 +7°C° 0.1 mm 3 mps 743 mmHg 68%
    14:00 +7°C° 0.1 mm 3 mps 743 mmHg 62%
    15:00 +6°C° 0 mm 2 mps 744 mmHg 64%
    16:00 +5°C° 0 mm 2 mps 744 mmHg 67%
    17:00 +4°C° 0 mm 2 mps 744 mmHg 70%
    18:00 +4°C° 0 mm 1 mps 745 mmHg 72%
    19:00 +3°C° 0 mm 1 mps 745 mmHg 74%
    20:00 +2°C° 0 mm 1 mps 746 mmHg 77%
    21:00 +2°C° 0 mm 1 mps 746 mmHg 78%
    22:00 +2°C° 0 mm 1 mps 746 mmHg 79%
    23:00 +2°C° 0 mm 1 mps 747 mmHg 80%

    30 September, Sunday

    Time Temperature Precipitation Wind Pressure Humidity
    00:00 +1°C° 0 mm 1 mps 747 mmHg 82%
    01:00 +1°C° 0 mm 1 mps 747 mmHg 83%
    02:00 -1°C° 0 mm 2 mps 747 mmHg 84%
    03:00 -1°C° 0 mm 2 mps 747 mmHg 84%
    04:00 -1°C° 0 mm 2 mps 747 mmHg 84%
    05:00 -1°C° 0 mm 2 mps 747 mmHg 84%
    06:00 +1°C° 0 mm 2 mps 747 mmHg 78%
    07:00 +2°C° 0 mm 2 mps 747 mmHg 73%
    08:00 +3°C° 0 mm 2 mps 747 mmHg 67%
    09:00 +4°C° 0 mm 3 mps 747 mmHg 62%
    10:00 +5°C° 0 mm 3 mps 747 mmHg 57%
    11:00 +7°C° 0 mm 3 mps 747 mmHg 53%
    12:00 +8°C° 0 mm 3 mps 746 mmHg 52%
    13:00 +8°C° 0 mm 3 mps 745 mmHg 51%
    14:00 +8°C° 0 mm 3 mps 745 mmHg 51%
    15:00 +7°C° 0 mm 3 mps 745 mmHg 56%
    16:00 +5°C° 0 mm 3 mps 744 mmHg 61%
    17:00 +5°C° 0 mm 2 mps 744 mmHg 66%
    18:00 +4°C° 0 mm 3 mps 744 mmHg 69%
    19:00 +3°C° 0 mm 3 mps 743 mmHg 73%
    20:00 +2°C° 0 mm 3 mps 743 mmHg 76%
    21:00 +2°C° 0 mm 3 mps 743 mmHg 78%
    22:00 +2°C° 0 mm 3 mps 743 mmHg 80%
    23:00 +2°C° 0 mm 3 mps 742 mmHg 82%
    Show more